Urbana, Arkansas
Current Conditions -  °F | °C
As of 3:35 PM on Friday 31 Oct 2014 (Local Time) from KCDH Reporting Station
Clear Clear  
Wind Chill: 68°   Ceiling: Unl
Heat Index: 68°   Visibility: 10mi
Dew Point: 41°   Wind: 12mph
Humidity: 37%   Direction: 40°NE
Pressure: 30.19"   Gusts: 17mph
Location:  33.16°N, 92.45°W
Report Text: KCDH 312035Z AUTO 04010G15KT 10SM CLR 20/05 A3019 RMK AO2
Loading
Personal Weather Stations






























Interactive Weather Map
Tropical Storm Tracking
New forecast layout! Learn more

10-Day Weather Forecast

Advertisements
Track Severe Weather on mobile